TAM2742 SBGR-SAEZ

Flight info

Callsign TAM2742
Flight time N/A
Altitude 38000
Route UBSOD UZ38 UMDEX DCT CXS DCT UMRUD UN741 PAPIX PAPIX6B
Aircraft B77W/H-SDE1E2E3FGHIJ2J3J4J5M1RWXY/LB1D1

Departure

Time 2026-04-30 14:55
Airport São Paulo/Guarulhos–Governor André Franco Montoro International Airport (SBGR)

Arrival

Time N/A
Airport Ezeiza International Airport - Ministro Pistarini (SAEZ)
Time Latitude Longitude Altitude Speed Heading
2026-04-30 14:30 -23.42860 -46.48277 2472 ft 0 kts 321°
2026-04-30 14:47 -23.42866 -46.48271 2473 ft 2 kts 321°
2026-04-30 14:47 -23.42874 -46.48264 2473 ft 0 kts 321°
2026-04-30 14:48 -23.42881 -46.48258 2473 ft 2 kts 321°
2026-04-30 14:49 -23.42895 -46.48245 2473 ft 3 kts 311°
2026-04-30 14:49 -23.42906 -46.48227 2473 ft 3 kts 294°
2026-04-30 14:49 -23.42912 -46.48206 2473 ft 3 kts 277°
2026-04-30 14:49 -23.42912 -46.48184 2473 ft 3 kts 261°
2026-04-30 14:50 -23.42896 -46.48143 2473 ft 2 kts 231°
2026-04-30 14:50 -23.42896 -46.48142 2473 ft 0 kts 231°
2026-04-30 14:51 -23.42956 -46.48168 2473 ft 8 kts 168°
2026-04-30 14:51 -23.43004 -46.48154 2473 ft 9 kts 166°
2026-04-30 14:51 -23.43133 -46.48145 2473 ft 9 kts 236°
2026-04-30 14:52 -23.43123 -46.48205 2473 ft 8 kts 270°
2026-04-30 14:52 -23.43209 -46.48373 2473 ft 10 kts 202°
2026-04-30 14:52 -23.43273 -46.48369 2473 ft 11 kts 166°
2026-04-30 14:53 -23.43426 -46.48302 2473 ft 9 kts 116°
2026-04-30 14:53 -23.43415 -46.48244 2473 ft 0 kts 71°
2026-04-30 14:54 -23.43410 -46.48227 2473 ft 15 kts 72°
2026-04-30 14:54 -23.42912 -46.46417 2589 ft 219 kts 73°
2026-04-30 14:55 -23.41929 -46.42817 5223 ft 257 kts 73°
2026-04-30 14:55 -23.41436 -46.40994 6911 ft 245 kts 72°
2026-04-30 14:55 -23.40429 -46.37379 8660 ft 265 kts 73°
2026-04-30 14:56 -23.40566 -46.33130 9007 ft 297 kts 111°
2026-04-30 14:56 -23.42426 -46.29031 9001 ft 305 kts 116°
2026-04-30 14:57 -23.43440 -46.27050 8980 ft 301 kts 129°
2026-04-30 14:57 -23.46932 -46.25037 9580 ft 290 kts 182°
2026-04-30 14:58 -23.50594 -46.26674 11314 ft 298 kts 223°
2026-04-30 14:58 -23.52140 -46.28291 11903 ft 318 kts 226°
2026-04-30 14:58 -23.62835 -46.37650 16595 ft 374 kts 220°
2026-04-30 14:59 -23.80223 -46.52646 22721 ft 423 kts 221°
2026-04-30 15:00 -24.09518 -46.78651 29640 ft 475 kts 221°
2026-04-30 15:00 -24.30210 -46.97060 33279 ft 478 kts 221°
2026-04-30 15:01 -24.50763 -47.15423 36335 ft 472 kts 221°
2026-04-30 15:01 -24.57514 -47.21473 37108 ft 472 kts 221°
2026-04-30 15:01 -24.87368 -47.48327 38016 ft 467 kts 221°
2026-04-30 15:02 -25.72054 -48.13565 38169 ft 473 kts 203°
2026-04-30 15:03 -26.94625 -49.03174 37785 ft 425 kts 240°
2026-04-30 15:03 -27.16474 -49.21615 38001 ft 468 kts 193°
2026-04-30 15:04 -27.36404 -49.38884 37961 ft 471 kts 221°
2026-04-30 15:04 -27.49923 -49.45087 37997 ft 467 kts 214°
2026-04-30 15:05 -28.59094 -50.60808 37959 ft 474 kts 226°
2026-04-30 15:06 -29.33769 -51.43050 38028 ft 467 kts 226°
2026-04-30 15:07 -30.81025 -53.10645 37978 ft 465 kts 227°